Find Starlink 38282

NORAD ID: 100394 Int'l Des: 2026-190 Owner: SPXS Country: US Constellation: starlink operational

Aktuelle Ansicht

3D-Globus wird geladen...

About Starlink 38282

Starlink 38282 (NORAD 100394) is a starlink constellation satellite launched Aug 19, 2026 by SPXS of US. with a mass of 575.00 kg.

Nächste Überflüge

Passes for default location (London). Set your location on the main map for personalized predictions.

Höhenverlauf

Loading altitude history...

Zweizeiliger Elementsatz

1 A0394U 26190Z 26263.98250218 .00015682 00000-0 28914-3 0 9997
2 A0394 97.2847 118.0879 0001217 109.7331 250.4052 15.49216955 6432
Epoch: 20. Sept. 2026 • Age: 6 hours

Aktueller Status

Höhe 437.3 km
Apogäum / Perigäum N/A
Geschwindigkeit 7.65 km/s
Subsatellitenpunkt -46.13°S, 147.44°W
Startdatum 19. Aug. 2026
Alter 33 days
Typ internet

Technische Details

Klassifizierung Payload
Masse 575.00 kg
Trockenmasse 530.00 kg
Länge 0.30 m
Spannweite 29.00 m
Form ? Box + pan
Hersteller SPXS
Bus-Typ Starlink V2MO
Phasenstatus In Orbit
Besitzer/Staat SPXS/US

Most Searched